www.pogodaiklimat.ru

Погода и климат >> Архив погоды >> Россия >> Чукотка >> Эгвекинот


ПОГОДА в Эгвекиноте

  • Прогноз погоды в Эгвекиноте
  • Монитор погоды в Эгвекиноте
  • Климат города

АРХИВ ПОГОДЫ в Эгвекиноте

Время (UTC), дата Ветер
(напр.,м/с)
 
Видим.   Явления Облачность Т
(С)
Тd
(С)
f
(%)
Тe
(С)
Тes
(С)
Комфортность P
(гПа)
Po
(гПа)
Тmin
(С)
Tmax
(С)
R
(мм)
S
(см)
18 18.03 С 5
{8}
20 км [диам. сложн. отлож. 5 мм] 10/8 930 м
[Sc Ci fib]
-10.2 -13.6 76 -18 -18 1021.6 1018.6 -16.9 76
21 18.03 С 4
{8}
20 км [диам. сложн. отлож. 5 мм] 10/6 930 м
[Sc Ac trans Ci sp]
-9.6 -13.2 75 -16 -16 1021.9 1018.9 -16.9
00 19.03 С 4
{7}
20 км [диам. сложн. отлож. 4 мм] 10/5 1020 м
[Sc Ac trans Ci sp]
-9.4 -12.4 79 -16 -16 1021.5 1018.5
03 19.03 З 2
{5}
20 км [диам. сложн. отлож. 3 мм] 10/0
[Ac trans Cc]
-9.4 -13.7 71 -14 -12 1020.6 1017.6
06 19.03 штиль 0
{2}
20 км [диам. сложн. отлож. 2 мм] 10/8 1050 м
[Sc Ci sp]
-10.7 -13.3 81 -11 -11 1020.1 1017.1 -8.6
09 19.03 штиль 0
{2}
4000 м слабый снег [диам. сложн. отлож. 2 мм] 10/6 1000 м
[Sc As op]
-12.2 -13.8 88 -12 -12 1020.1 1017.1
12 19.03 С 2
{3}
4000 м слабый снег [диам. сложн. отлож. 2 мм] 10/6 600 м
[Sc As op]
-12.0 -13.7 87 -17 -17 1019.3 1016.3
15 19.03 штиль 0
{2}
4000 м слабый снег [диам. сложн. отлож. 2 мм] 10/6 600 м
[Sc As op]
-12.8 -14.2 89 -13 -13 1019.2 1016.2
18 19.03 С 2
{3}
20 км {снег} [диам. сложн. отлож. 2 мм] 3/0
[Ac trans Ci fib]
-14.2 -16.6 82 -19 -19 1020.0 1017.0 -16.1 0.2 77
21 19.03 ЮЗ 1
{3}
20 км [диам. сложн. отлож. 2 мм] 4/0
[Ac trans Ci fib]
-15.6 -18.8 76 -18 -16 1021.6 1018.6 -16.1
00 20.03 штиль 0
{3}
20 км [диам. сложн. отлож. 2 мм] 4/0
[Ac trans Ci fib]
-12.6 -16.4 73 -13 -8 1023.4 1020.4
03 20.03 штиль 0
{3}
20 км ясно -11.8 -15.5 74 -12 -9 1023.8 1020.8
06 20.03 штиль 0
{3}
20 км ясно -14.5 -17.4 79 -15 -15 1024.6 1021.6 -9.4
09 20.03 штиль 0
{3}
20 км ясно -18.0 -20.2 83 -18 -18 1025.9 1022.8
12 20.03 штиль 0
{3}
20 км ясно -19.2 -21.2 84 -19 -19 1026.2 1023.1
15 20.03 штиль 0
{4}
20 км ясно -21.9 -23.6 86 -22 -22 1026.9 1023.8
18 20.03 штиль 0
{4}
20 км 8/0
[Ci fib]
-20.5 -22.4 85 -21 -21 1026.6 1023.5 -23.5 76
21 20.03 С 2
{2}
20 км 3/0
[Ci fib]
-22.8 -25.3 80 -29 -27 1027.6 1024.4 -23.8
00 21.03 штиль 0
{2}
20 км 6/0
[Cc]
-15.1 -20.0 66 -15 -10 1027.5 1024.5
03 21.03 штиль 0
{2}
20 км 10/6 1500 м
[Sc Ci sp]
-16.8 -19.4 80 -17 -16 1027.4 1024.4
06 21.03 Ю 2
{4}
20 км 10/8 1500 м
[Sc Ac und]
-15.7 -17.5 86 -21 -21 1026.8 1023.8 -13.7
09 21.03 СВ 1
{3}
4000 м слабый снег 10/8 1500 м
[Sc As op]
-14.2 -15.9 87 -17 -17 1026.6 1023.6
12 21.03 штиль 0
{2}
4000 м слабый снег 10/8 600 м
[Sc As op]
-13.4 -14.8 89 -13 -13 1025.7 1022.7
15 21.03 штиль 0
{1}
4000 м слабый снег 10/8 600 м
[Sc As op]
-12.9 -14.2 90 -13 -13 1024.5 1021.5
18 21.03 штиль 0
{1}
4000 м слабый снег 10/8 600 м
[Sc As op]
-12.6 -13.8 91 -13 -13 1023.3 1020.3 -15.8 0.5 78
21 21.03 штиль 0
{2}
4000 м слабый снег 10/8 600 м
[Sc As op]
-11.1 -13.1 85 -11 -11 1022.7 1019.7 -15.8
00 22.03 С 1
{1}
10 км слабый снег 10/8 600 м
[Sc Ac trans Cs]
-10.3 -12.9 81 -13 -12 1022.1 1019.1
03 22.03 З 1
{2}
20 км {снег} 3/3 1000 м
[Sc]
-10.2 -13.2 79 -12 -11 1021.5 1018.5
06 22.03 штиль 0
{3}
20 км {снег} ясно -13.5 -14.5 92 -14 -14 1021.3 1018.3 -6.1 0.2
09 22.03 С 1
{3}
20 км ясно -18.5 -20.1 87 -21 -21 1021.6 1018.5
12 22.03 штиль 0
{3}
20 км ясно -19.5 -21.1 87 -20 -20 1021.3 1018.2
15 22.03 штиль 0
{3}
20 км ясно -22.7 -24.9 82 -23 -23 1021.1 1017.9
18 22.03 штиль 0
{2}
2000 м туман на расстоянии ясно -26.5 -29.2 78 -27 -27 1020.9 1017.7 -26.5 78
21 22.03 штиль 0
{2}
2000 м в посл. час туман ясно -22.8 -25.2 81 -23 -20 1021.1 1017.9 -26.5
00 23.03 штиль 0
{2}
2000 м дымка {туман} ясно -20.4 -22.4 84 -20 -15 1021.1 1018.0
03 23.03 штиль 0
{2}
20 км ясно -18.3 -19.9 87 -18 -15 1020.6 1017.5
06 23.03 С 2
{5}
20 км ясно -22.6 -24.7 83 -29 -29 1020.7 1017.5 -16.4
09 23.03 штиль 0
{2}
20 км ясно -23.6 -26.0 81 -24 -24 1021.2 1018.0
12 23.03 штиль 0
{2}
20 км туман на расстоянии ясно -24.6 -27.1 80 -25 -25 1021.6 1018.4
15 23.03 Ю 1
{2}
4000 м туман на расстоянии ясно -26.6 -29.0 80 -30 -30 1021.4 1018.2
18 23.03 штиль 0
{3}
4000 м туман на расстоянии 4/0
[Ci fib]
-26.6 -29.0 80 -27 -27 1022.4 1019.2 -28.6 78
21 23.03 штиль 0
{2}
4000 м туман на расстоянии ясно -25.6 -28.1 79 -26 -22 1022.7 1019.5 -28.6
00 24.03 штиль 0
{2}
10 км туман на расстоянии ясно -21.1 -23.5 81 -21 -15 1023.6 1020.5
03 24.03 Ю 1
{2}
20 км ясно -20.5 -22.7 82 -24 -21 1023.4 1020.3
06 24.03 С 1
{3}
20 км 3/0
[Ci fib]
-20.8 -22.8 84 -24 -24 1023.3 1020.2 -18.4
09 24.03 С 1
{5}
20 км ясно -25.8 -28.4 79 -29 -29 1024.1 1020.9
12 24.03 штиль 0
{3}
20 км ясно -22.2 -24.5 81 -22 -22 1023.7 1020.6
15 24.03 штиль 0
{3}
20 км ясно -24.1 -26.5 80 -24 -24 1022.8 1019.6
18 24.03 штиль 0
{4}
4000 м туман на расстоянии 3/0
[Ci fib]
-25.1 -27.4 81 -25 -25 1022.2 1019.0 -27.4 77
21 24.03 штиль 0
{2}
4000 м туман на расстоянии 1/0
[Ci fib]
-22.6 -24.7 83 -23 -19 1022.2 1019.0 -28.6
00 25.03 штиль 0
{2}
20 км ясно -19.7 -21.9 83 -20 -14 1021.6 1018.5
03 25.03 штиль 0
{2}
20 км ясно -19.7 -21.9 83 -20 -17 1021.6 1018.5
06 25.03 В 1
{4}
20 км 3/0
[Ci fib]
-21.4 -23.5 83 -25 -25 1019.2 1016.1 -17.2
09 25.03 штиль 0
{3}
20 км ясно -22.5 -24.6 83 -23 -23 1019.2 1016.0
12 25.03 штиль 0
{1}
20 км ясно -24.2 -26.5 81 -24 -24 1018.7 1015.5

 

Местоположение метеостанции Эгвекинот (Чукотка, Россия): широта 66.35 долгота -179.00 высота над уровнем моря 22 м.

В архиве по умолчанию представлена погода в Эгвекиноте за последнюю неделю. Архивные данные за месяц целиком и за предыдущие месяцы, начиная с января 2011 года, Вы можете получить, выбрав интересующий диапазон дат из раскрывающегося списка и нажав кнопку "Ввод!".

Внимание! Время в таблицах - всемирное. Для получения местного времени необходимо прибавить поправку, которая в Эгвекиноте равна 12 ч.

Смотрите также архив погоды в соседних городах и на ближайших метеорологических станциях:

Погода на Мысе Ванкарем (Чукотка, Россия) (239 км)
Погода в Уэлене (Чукотка, Россия) (448 км)
Погода на Острове Врангеля (Чукотка, Россия) (517 км)

Пояснения к столбцам:

Ветер - указаны скорость ветра в м/с - средняя за 10 мин, порывы в срок и между сроками (в фигурных скобках) и направление, откуда дует ветер: С - северный, СВ - северо-восточный, В - восточный, ЮВ - юго-восточный, Ю - южный, ЮЗ - юго-западный, З - западный, СЗ - северо-западный.
Видимость - горизонтальная дальность видимости в метрах или километрах. При видимости от 1 до 10 км при отсутствии осадков обычно наблюдается дымка, при ухудшении видимости до 1 км и менее - туман. В сухую погоду видимость может ухудшаться дымом, пылью или мглою.
Явления - указаны атмосферные явления, наблюдавшиеся в срок или в последний час перед сроком; фигурными скобками обозначены явления, наблюдавшиеся между сроками (за 1-3 часа до срока); квадратными скобками обозначены град или гололедные отложения с указанием их диаметра в мм.
Облачность - указаны через наклонную черту общая и нижняя облачность в баллах и высота нижней границы облаков в метрах; квадратными скобками обозначены формы облаков: Ci - перистые, Cs - перисто-слоистые, Cc - перисто-кучевые, Ac - высококучевые, As - высокослоистые, Sc - слоисто-кучевые, Ns - слоисто-дождевые, Cu - кучевые, Cb - кучево-дождевые. Подробнее классификацию облаков см. в Атласе облаков (PDF).
T - Температура воздуха - температура, измеренная на высоте 2 м над землей.
Td - Температура точки росы - температура, при понижении до которой содержащийся в воздухе водяной пар достигнет насыщения.
f - Относительная влажность воздуха - влажноcть воздуха, измеренная на высоте 2 м над землей.
Te - Эффективная температура - температура, которую ощущает одетый по сезону человек в тени. Характеристика душности погоды. При расчете учитывается влияние влажности воздуха и скорости ветра на теплоощущения человека.
Tes - Эффективная температура на солнце - температура, которую ощущает человек, с поправкой на солнечный нагрев. Характеристика знойности погоды. Зависит от высоты солнца над горизонтом, облачности и скорости ветра. Ночью, в пасмурную погоду, а также при ветре 12 м/с и более поправка равна нулю.
P - Атмосферное давление - приведенное к уровню моря атмосферное давление.
Po - Атмосферное давление - измеренное на уровне метеостанции атмосферное давление.
Tmin - Минимальная температура - минимум температуры воздуха на высоте 2 м над землей.
Tmax - Максимальная температура - максимум температуры воздуха на высоте 2 м над землей.
R - Количество осадков - Количество выпавших осадков, мм. При наведении курсора мыши на число - период времени, за который выпало указанное количество осадков.
S - Снежный покров - Высота снежного покрова, см. При наведении курсора мыши на число - состояние снежного покрова и степень покрытия местности в баллах.